Dansville, NY

4:26 AM EDT on September 30, 2016 (GMT -0400)
Dansville Municipal

Weather History for KDSV - February, 2013

Change the Weather History Date:

Friday, February 1, 2013

  Actual Average Record
Temperature  
Mean Temperature 20 °F -  
Max Temperature 23 °F 34 °F 62 °F (1988)
Min Temperature 17 °F 16 °F -4 °F (1971)
Degree Days  
Heating Degree Days 45    
Moisture  
Dew Point 12 °F    
Average Humidity 73    
Maximum Humidity 93    
Minimum Humidity 55    
Precipitation  
Precipitation 0.00 in - - ()
Sea Level Pressure  
Sea Level Pressure 30.00 in    
Wind  
Wind Speed 6 mph (WNW)    
Max Wind Speed 17 mph    
Max Gust Speed 25 mph    
Visibility 8 miles    
Events Snow    
Averages and records for this station are not official NWS values.
T = Trace of Precipitation, MM = Missing Value Source: NWS Daily Summary

Daily Weather History Graph

Daily Weather History Graph

Search for Another Location

Airport or City:

Trip Planner

Search our weather history database for the weather conditions in past years. The results will help you decide how hot, cold, wet, or windy it might be!

Date:

Astronomy

Feb. 01, 2013 Rise Set
Actual Time 7:24 AM EST 5:24 PM EST
Civil Twilight 6:54 AM EST 5:54 PM EST
Nautical Twilight 6:21 AM EST 6:28 PM EST
Astronomical Twilight 5:48 AM EST 7:01 PM EST
Moon 11:39 PM EST (2/1) 9:48 AM EST (2/1)
Length of Visible Light 10h 59m
Length of Day
10h 00m
Waning Gibbous, 70% of the Moon is Illuminated
Feb 1
Waning Gibbous
Feb 3
Last Quarter
Feb 10
New
Feb 17
First Quarter
Feb 25
Full

Hourly Weather History & Observations

Time (EST) Temp. Windchill Dew Point Humidity Pressure Visibility Wind Dir Wind Speed Gust Speed Precip Events Conditions
12:51 AM 21.2 °F 16.4 °F 15.8 °F 80% 29.72 in 9.0 mi WNW 3.5 mph - 0.00 in   Overcast
1:54 AM 21.0 °F 11.4 °F 12.9 °F 71% 29.78 in 10.0 mi WNW 8.1 mph - N/A   Overcast
2:29 AM 19.4 °F 14.3 °F 14.0 °F 80% 29.73 in 6.0 mi WNW 3.5 mph - 0.00 in Snow Light Snow
2:39 AM 19.4 °F 14.3 °F 12.2 °F 74% 29.73 in 9.0 mi West 3.5 mph - 0.00 in   Scattered Clouds
2:54 AM 21.0 °F 14.6 °F 10.9 °F 65% 29.78 in 10.0 mi West 4.6 mph - 0.00 in   Clear
3:49 AM 19.4 °F 11.5 °F 12.2 °F 74% 29.74 in 5.0 mi NW 5.8 mph - 0.00 in Snow Light Snow
3:54 AM 19.9 °F 12.1 °F 14.0 °F 78% 29.80 in 4.0 mi NW 5.8 mph - 0.00 in Snow Light Snow
4:37 AM 19.4 °F 12.8 °F 15.8 °F 86% 29.76 in 2.5 mi NW 4.6 mph - 0.00 in Snow Light Snow
4:45 AM 19.4 °F - 15.8 °F 86% 29.76 in 7.0 mi Calm Calm - 0.00 in Snow Light Snow
4:54 AM 19.0 °F - 15.1 °F 85% 29.82 in 9.0 mi Calm Calm - 0.00 in   Mostly Cloudy
5:02 AM 19.4 °F - 15.8 °F 86% 29.77 in 10.0 mi Calm Calm - N/A   Mostly Cloudy
6:54 AM 19.9 °F 12.1 °F 10.9 °F 68% 29.88 in 10.0 mi Variable 5.8 mph - N/A   Overcast
7:54 AM 19.9 °F 12.1 °F 10.9 °F 68% 29.92 in 10.0 mi WNW 5.8 mph - N/A   Overcast
8:54 AM 19.9 °F 12.1 °F 12.0 °F 71% 29.96 in 10.0 mi WNW 5.8 mph - N/A   Mostly Cloudy
9:54 AM 21.0 °F 9.3 °F 10.0 °F 63% 29.98 in 10.0 mi NW 11.5 mph 20.7 mph N/A   Partly Cloudy
10:54 AM 21.9 °F 9.2 °F 12.0 °F 66% 30.01 in 10.0 mi NW 13.8 mph 21.9 mph N/A   Mostly Cloudy
11:54 AM 21.9 °F 9.2 °F 10.9 °F 63% 30.02 in 10.0 mi NW 13.8 mph - 0.00 in   Mostly Cloudy
12:54 PM 23.0 °F 9.2 °F 10.9 °F 60% 30.03 in 10.0 mi NW 17.3 mph 25.3 mph N/A   Mostly Cloudy
1:54 PM 23.0 °F 9.2 °F 10.0 °F 58% 30.05 in 10.0 mi NW 17.3 mph 25.3 mph N/A   Overcast
3:54 PM 21.9 °F 9.2 °F 9.0 °F 58% 30.10 in 10.0 mi WNW 13.8 mph 18.4 mph 0.00 in   Mostly Cloudy
4:54 PM 21.0 °F 11.4 °F 7.0 °F 55% 30.13 in 10.0 mi West 8.1 mph 19.6 mph N/A   Scattered Clouds
6:54 PM 19.9 °F 13.4 °F 10.9 °F 68% 30.18 in 10.0 mi NNW 4.6 mph - 0.00 in   Overcast
7:41 PM 19.4 °F 14.3 °F 12.2 °F 74% 30.14 in 2.5 mi WNW 3.5 mph - 0.00 in Snow Light Snow
7:54 PM 19.9 °F 10.1 °F 12.9 °F 74% 30.20 in 5.0 mi NW 8.1 mph - 0.00 in Snow Light Snow
8:27 PM 19.4 °F 7.9 °F 12.2 °F 74% 30.15 in 10.0 mi NW 10.4 mph - 0.00 in   Overcast
8:54 PM 19.9 °F 10.1 °F 10.9 °F 68% 30.22 in 10.0 mi NW 8.1 mph - 0.00 in   Overcast
9:54 PM 19.9 °F 12.1 °F 10.0 °F 65% 30.24 in 10.0 mi WNW 5.8 mph - 0.00 in   Overcast
10:17 PM 19.4 °F 14.3 °F 10.4 °F 68% 30.18 in 3.0 mi West 3.5 mph - 0.00 in Snow Light Snow
10:23 PM 19.4 °F 14.3 °F 12.2 °F 74% 30.18 in 1.8 mi WNW 3.5 mph - 0.00 in Snow Light Snow
10:39 PM 17.6 °F - 14.0 °F 86% 30.18 in 1.0 mi Calm Calm - 0.00 in Snow Light Snow
10:48 PM 17.6 °F - 15.8 °F 93% 30.18 in 2.0 mi Calm Calm - 0.00 in Snow Light Snow
10:54 PM 18.0 °F 12.7 °F 14.0 °F 84% 30.25 in 3.0 mi Variable 3.5 mph - 0.00 in Snow Light Snow
11:12 PM 17.6 °F - 12.2 °F 79% 30.18 in 6.0 mi Calm Calm - 0.00 in Snow Light Snow
11:54 PM 17.1 °F 11.7 °F 9.0 °F 71% 30.25 in 10.0 mi Variable 3.5 mph - 0.00 in   Overcast